Погода в Морках

Россия / Республика Марий Эл     56°25′44″N   48°59′55″E
темп.,
°C
ветер,
м/с
пор.,
м/с
влажн.,
%
обл.,
%
осадки,
мм/ч
давл.,
гПа
погр.,
м
16 июня, ср
ср1600:00+18юв127797 0.3 101153
03:00+16св22869 0.4 101116
06:00+19в399136 0.6 1009312
09:00+25юв35565 0.6 1008542
12:00+28ююв354190 0.0 10061094
15:00+28ююв344531 0.0 10051451
18:00+26зюз37633 0.0 1004342
21:00+17с6149540 1.3 1008748
17 июня, чт
чт1700:00+14ссз513943 0.0 1011581
03:00+11ссз312910 0.0 1013345
06:00+15ссз397798 0.0 1015381
09:00+19ссз48445 0.0 10161596
12:00+22ссз574086 0.0 10162563
15:00+21ссз474383 0.0 10172285
18:00+18сз3862100 0.0 1018615
21:00+14ссз410650 0.0 1021706
18 июня, пт
пт1800:00+11ссз411630 0.0 1022326
03:00+8ссз210720 0.0 1024202
06:00+12с49630 0.0 1025461
09:00+17с454799 0.0 10261166
12:00+19ссз45405 0.0 10261466
15:00+20ссз4540100 0.0 10261435
18:00+19сз2359100 0.0 1025212
21:00+15зюз2268100 0.0 102514
19 июня, сб
сб1900:00+12зюз247099 0.0 102561
03:00+12з268550 0.0 1025111
06:00+16з31074100 0.0 1025268
09:00+23з475878 0.0 1024791
12:00+26зсз57455 0.0 10231910
15:00+27сз58455 0.0 10212054
18:00+25зсз38580 0.0 1021642
21:00+19з39820 0.0 1022166
20 июня, вс
вс2000:00+17зсз39920 0.0 1022152
03:00+16зсз28950 0.0 1023134
06:00+20зсз36760 0.0 1023214
09:00+26зсз45540 0.0 1023758
12:00+28сз45440 0.0 10221805
15:00+29сз45445 0.0 10211938
18:00+27ссз24625 0.0 1021158
21:00+21юз22778 0.0 102222